Location: Brachbach
(49.1847°N, 9.7240°E)
Time: 00:44:30
(UTC+00:00)

FENGYUN 3A - Pass Details

Date: 15 August 2024
Orbit: 822 x 834 km, 98.6° (Epoch: 07 September)

Event Time Altitude Azimuth Distance (km) Brightness Sun altitude
Rises 03:16:04 0° 5° (N) 3,395 7.5 -9.1°
Reaches altitude 10° 03:18:53 10° 352° (N) 2,456 6.5 -8.7°
Maximum altitude 03:23:00 23° 302° (WNW) 1,722 5.1 -8.1°
Drops below altitude 10° 03:27:06 10° 252° (WSW) 2,439 5.5 -7.6°
Enters shadow 03:27:30 - 250° (WSW) 2,561 5.6 -7.5°
